UTC,SampNum,MM/DD/YYYY,HH:MM:SS,VbatMain,VbiasPos,VbiasNeg,TC_cont,Humidity,Vrse,Vrse_std,Vk,Vk_std,Ik,Ib,Opt_PN,Opt_SN,Moxy,O2satper,TC_opt,Dphase,Bphase,Rphase,Bamp,Bpot,Ramp,Opt_rawtemp,TC_MCat,Cond,Pres,pSal,day_MC,month_MC,year_MC,time_MC,pH,CHa,NTU,flow,unix_time,TC_cont_flg,Moxy_flg,O2satper_flg,pSal_flg,pH_flg,CHa_flg,NTU_flg
2023-03-09 01:52:20+00:00,#0000026,03/09/2023,01:52:29,10.43,3.61,-3.55,11.31,54,-0.964244,1e-005,-0.757575,2.8e-005,-12.86,-1.72,5730,1914,390.402,111.896,10.448,29.553,30.302,36.759,6.457,774.2,731,530.2,10.5157,3.69579,0.135,33.3654,9,Mar,2023,01:52:17,7.59438929793131,,,,1678326740,,,,,,,
2023-03-09 02:00:02+00:00,#0000027,03/09/2023,02:03:11,10.43,3.61,-3.55,11.05,53,-0.963188,1.2e-005,-0.757611,3.8e-005,-14.01,-1.828,5730,1914,395.258,115.213,11.173,29.117,29.866,36.324,6.458,758.9,731.8,507.1,11.3112,3.76452,0.154,33.3253,9,Mar,2023,02:02:59,7.61614778849976,,,,1678327202,,,,,,,
2023-03-09 02:20:01+00:00,#0000028,03/09/2023,02:23:11,10.46,3.61,-3.55,11.82,53,-0.962989,9e-006,-0.758877,4.2e-005,-15.69,-1.808,5730,1914,424.418,124.47,11.438,28.255,29.004,35.461,6.457,727.5,729.3,498.7,11.5822,3.78978,0.155,33.329,9,Mar,2023,02:22:59,7.60898537820472,,,,1678328401,,,,,,,
2023-03-09 02:40:02+00:00,#0000029,03/09/2023,02:43:11,10.47,3.61,-3.55,11.82,53,-0.962703,9e-006,-0.759631,6.9e-005,-15.25,-1.826,5730,1914,436.239,128.224,11.535,27.931,28.68,35.142,6.462,715.2,726.5,495.6,11.6387,3.79611,0.155,33.3402,9,Mar,2023,02:42:59,7.61420406626075,,,,1678329602,,,,,,,
2023-03-09 03:00:01+00:00,#0000030,03/09/2023,03:03:10,10.47,3.61,-3.55,11.95,53,-0.962385,1e-005,-0.760011,2.3e-005,-14.62,-1.852,5730,1914,439.495,129.213,11.546,27.85,28.599,35.069,6.47,712,724.8,495.2,11.6169,3.7944,0.155,33.343,9,Mar,2023,03:02:59,7.61804970693176,,,,1678330801,,,,,,,
2023-03-09 03:20:02+00:00,#0000031,03/09/2023,03:23:11,10.5,3.61,-3.55,12.34,53,-0.96196,1e-005,-0.760291,5.2e-005,-16.44,-1.863,5730,1914,439.95,129.406,11.566,27.831,28.58,35.055,6.475,711.2,724,494.6,11.6269,3.79518,0.159,33.3416,9,Mar,2023,03:22:59,7.62007766365107,,,,1678332002,,,,,,,
2023-03-09 03:40:01+00:00,#0000032,03/09/2023,03:43:11,10.48,3.61,-3.55,12.08,53,-0.961655,1.4e-005,-0.760673,3.9e-005,-13.13,-1.872,5730,1914,443.801,130.632,11.597,27.73,28.479,34.953,6.474,707.5,723.6,493.6,11.6499,3.79765,0.16,33.3452,9,Mar,2023,03:42:59,7.62916150955685,,,,1678333201,,,,,,,
2023-03-09 04:00:01+00:00,#0000033,03/09/2023,04:03:10,10.45,3.61,-3.55,12.08,53,-0.961248,1.6e-005,-0.760948,5e-005,-16.62,-1.874,5730,1914,446.423,131.467,11.618,27.661,28.41,34.882,6.472,704.9,723.3,492.9,11.6754,3.79931,0.162,33.3384,9,Mar,2023,04:02:59,7.63625552834967,,,10.9090909090909,1678334401,,,,,,,
2023-03-09 04:20:02+00:00,#0000034,03/09/2023,04:23:11,10.46,3.61,-3.55,12.08,53,-0.961018,1.3e-005,-0.761112,1.8e-005,-13.33,-1.843,5730,1914,444.27,130.764,11.595,27.72,28.469,34.936,6.468,707,723,493.7,11.6427,3.79526,0.163,33.3283,9,Mar,2023,04:22:59,7.64017477457454,,,11.1818181818182,1678335602,,,,,,,
2023-03-09 04:40:01+00:00,#0000035,03/09/2023,04:43:10,10.49,3.61,-3.55,12.34,53,-0.960772,1.1e-005,-0.761592,9.9e-005,-14.05,-1.816,5730,1914,442.659,130.243,11.579,27.763,28.512,34.976,6.465,708.5,723.1,494.2,11.6258,3.79377,0.162,33.3288,9,Mar,2023,04:42:59,7.64086656759519,,,11.3818181818182,1678336801,,,,,,,
2023-03-09 05:00:02+00:00,#0000036,03/09/2023,05:03:11,10.47,3.61,-3.55,12.08,53,-0.960464,1.1e-005,-0.761918,2.8e-005,-24.95,-1.799,5730,1914,447.011,131.451,11.555,27.672,28.421,34.883,6.462,705.2,723.2,494.9,11.5971,3.79103,0.164,33.3278,9,Mar,2023,05:02:59,7.6499564453845,,,11.6727272727273,1678338002,,,,,,,
2023-03-09 05:20:02+00:00,#0000037,03/09/2023,05:23:11,10.48,3.61,-3.55,12.34,53,-0.960148,9e-006,-0.76222,6e-005,-22.62,-1.802,5730,1914,450.574,132.396,11.521,27.604,28.353,34.807,6.454,702.6,723.4,496,11.559,3.7881,0.164,33.3335,9,Mar,2023,05:22:59,7.65194949025175,,,11.9454545454545,1678339202,,,,,,,
2023-03-09 05:40:01+00:00,#0000038,03/09/2023,05:43:10,10.49,3.61,-3.55,12.08,53,-0.959913,1.2e-005,-0.762408,9e-006,-15.84,-1.794,5730,1914,452.373,132.822,11.488,27.576,28.325,34.775,6.45,701.6,723.6,497.1,11.5291,3.78515,0.166,33.3314,9,Mar,2023,05:42:59,7.65974385508483,,,12.0363636363636,1678340401,,,,,,,
2023-03-09 06:00:02+00:00,#0000039,03/09/2023,06:03:11,10.47,3.61,-3.55,11.95,53,-0.959572,9e-006,-0.762541,3.6e-005,-17.07,-1.811,5730,1914,451.069,132.344,11.457,27.618,28.367,34.813,6.446,703.3,723.8,498.1,11.4973,3.78204,0.167,33.3296,9,Mar,2023,06:02:59,7.66758424560138,,,12.2181818181818,1678341602,,,,,,,
2023-03-09 06:20:02+00:00,#0000040,03/09/2023,06:23:11,10.47,3.61,-3.55,11.82,53,-0.959336,1.1e-005,-0.762685,3.9e-005,-15.48,-1.793,5730,1914,448.362,131.437,11.419,27.694,28.443,34.888,6.445,706.2,724.2,499.3,11.4537,3.77836,0.171,33.3328,9,Mar,2023,06:22:59,7.67364500921568,,,12.2363636363636,1678342802,,,,,,,
2023-03-09 06:40:01+00:00,#0000041,03/09/2023,06:43:10,10.47,3.61,-3.55,11.57,53,-0.959088,1.2e-005,-0.762915,5.7e-005,-17.64,-1.794,5730,1914,447.404,131.134,11.412,27.719,28.468,34.907,6.439,707.3,724.6,499.5,11.4579,3.77838,0.17,33.3291,9,Mar,2023,06:42:59,7.68152647268997,,,12.2181818181818,1678344001,,,,,,,
2023-03-09 07:00:02+00:00,#0000042,03/09/2023,07:03:11,10.48,3.61,-3.55,11.82,53,-0.958877,5e-006,-0.7631,6.4e-005,-18.59,-1.803,5730,1914,447.902,131.235,11.397,27.713,28.462,34.896,6.434,706.9,724.6,500,11.4361,3.77743,0.165,33.3395,9,Mar,2023,07:02:59,7.68185874554287,,,12.4363636363636,1678345202,,,,,,,
2023-03-09 07:20:02+00:00,#0000043,03/09/2023,07:23:11,10.48,3.61,-3.55,11.95,53,-0.958713,9e-006,-0.763288,3.7e-005,-19.82,-1.797,5730,1914,446.365,130.722,11.376,27.757,28.506,34.939,6.433,708.6,724.8,500.7,11.4182,3.77533,0.165,33.3351,9,Mar,2023,07:22:59,7.68284800675971,,,12.5454545454545,1678346402,,,,,,,
2023-03-09 07:40:01+00:00,#0000044,03/09/2023,07:43:10,10.48,3.61,-3.55,11.82,53,-0.958534,1.6e-005,-0.763525,1.6e-005,-13.2,-1.807,5730,1914,444.075,129.995,11.357,27.817,28.566,34.997,6.43,710.7,725,501.3,11.406,3.77313,0.167,33.3244,9,Mar,2023,07:42:59,7.68770829294695,,,12.5454545454545,1678347601,,,,,,,
2023-03-09 08:00:02+00:00,#0000045,03/09/2023,08:03:11,10.49,3.61,-3.55,12.21,53,-0.958365,5e-006,-0.763673,5.9e-005,-13,-1.763,5730,1914,442.755,129.574,11.346,27.852,28.601,35.032,6.43,712.1,725.3,501.6,11.3877,3.77315,0.166,33.3411,9,Mar,2023,08:02:59,7.68538446316469,,,12.3818181818182,1678348802,,,,,,,
2023-03-09 08:20:01+00:00,#0000046,03/09/2023,08:23:10,10.46,3.61,-3.55,11.82,53,-0.958202,8e-006,-0.763888,2e-005,-21.84,-1.843,5730,1914,441.378,129.11,11.325,27.893,28.642,35.07,6.428,713.4,725.3,502.3,11.3746,3.77092,0.165,33.3311,9,Mar,2023,08:22:59,7.69367598178956,,,12.2363636363636,1678350001,,,,,,,
2023-03-09 08:40:02+00:00,#0000047,03/09/2023,08:43:11,10.47,3.61,-3.55,11.05,53,-0.958066,1.7e-005,-0.763942,4.2e-005,-13.04,-1.824,5730,1914,438.298,128.053,11.273,27.986,28.735,35.158,6.424,716.8,725.5,504,11.3123,3.76667,0.162,33.3454,9,Mar,2023,08:42:59,7.70726750145708,,,12.4181818181818,1678351202,,,,,,,
2023-03-09 09:00:01+00:00,#0000048,03/09/2023,09:03:11,10.48,3.61,-3.55,11.57,53,-0.957974,8e-006,-0.764057,3e-005,-15.95,-1.756,5730,1914,432.414,126.182,11.22,28.147,28.896,35.32,6.424,722.6,725.7,505.6,11.256,3.76129,0.162,33.3434,9,Mar,2023,09:02:59,7.7014507140343,,,12.1090909090909,1678352401,,,,,,,
2023-03-09 09:20:01+00:00,#0000049,03/09/2023,09:23:10,10.47,3.61,-3.55,12.34,53,-0.957836,8e-006,-0.7642,3.1e-005,-11.85,-1.829,5730,1914,428.577,125.05,11.216,28.242,28.991,35.413,6.422,726.1,726.1,505.8,11.2569,3.76148,0.163,33.3444,9,Mar,2023,09:22:59,7.69291988534401,,,12.0545454545455,1678353601,,,,,,,
2023-03-09 09:40:02+00:00,#0000050,03/09/2023,09:43:11,10.51,3.61,-3.55,12.08,53,-0.957736,1.4e-005,-0.764405,4.4e-005,-12.53,-1.771,5730,1914,428.048,124.849,11.2,28.261,29.01,35.427,6.416,726.6,726.3,506.3,11.2446,3.75971,0.161,33.3381,9,Mar,2023,09:42:59,7.69830608456401,,,11.9454545454545,1678354802,,,,,,,
2023-03-09 10:00:01+00:00,#0000051,03/09/2023,10:03:10,10.47,3.61,-3.55,11.31,53,-0.957581,1.1e-005,-0.764613,1.4e-005,-14.32,-1.77,5730,1914,427.701,124.746,11.199,28.27,29.019,35.436,6.417,727.2,726.5,506.3,11.2421,3.75968,0.157,33.34,9,Mar,2023,10:02:59,7.71207409818562,,,11.9090909090909,1678356001,,,,,,,
2023-03-09 10:20:02+00:00,#0000052,03/09/2023,10:23:11,10.48,3.61,-3.55,12.34,53,-0.957398,1.5e-005,-0.764753,4.4e-005,-12.58,-1.819,5730,1914,426.542,124.382,11.19,28.302,29.051,35.467,6.416,728.2,726.6,506.6,11.2405,3.75892,0.155,33.3339,9,Mar,2023,10:23:00,7.70050175150741,,,11.8,1678357202,,,,,,,
2023-03-09 10:40:02+00:00,#0000053,03/09/2023,10:43:11,10.48,3.61,-3.55,11.82,53,-0.957319,1e-005,-0.764925,3.2e-005,-22.4,-1.759,5730,1914,426.312,124.23,11.161,28.319,29.068,35.482,6.414,729.1,726.8,507.5,11.2026,3.7561,0.154,33.3404,9,Mar,2023,10:42:59,7.70942565989739,,,11.4727272727273,1678358402,,,,,,,
2023-03-09 11:00:01+00:00,#0000054,03/09/2023,11:03:10,10.48,3.61,-3.55,11.57,53,-0.957148,1.1e-005,-0.765103,2.5e-005,-9.96,-1.77,5730,1914,425.623,123.972,11.14,28.345,29.094,35.502,6.408,729.8,727,508.2,11.1811,3.75444,0.15,33.3435,9,Mar,2023,11:02:59,7.71607319834934,,,11.3090909090909,1678359601,,,,,,,
2023-03-09 11:20:02+00:00,#0000055,03/09/2023,11:23:11,10.47,3.61,-3.55,11.57,53,-0.957048,1.3e-005,-0.765275,2.3e-005,-10.03,-1.748,5730,1914,425.856,124.044,11.142,28.338,29.087,35.493,6.406,729.5,727.1,508.1,11.1902,3.75524,0.149,33.3432,9,Mar,2023,11:22:59,7.71783899460237,,,11.2181818181818,1678360802,,,,,,,
2023-03-09 11:40:01+00:00,#0000056,03/09/2023,11:43:10,10.48,3.61,-3.55,11.57,53,-0.956823,1.7e-005,-0.765411,4.5e-005,-24.46,-1.805,5730,1914,425.483,124.007,11.167,28.337,29.086,35.49,6.404,729.4,727.2,507.3,11.2242,3.75746,0.151,33.3343,9,Mar,2023,11:42:59,7.72169395812989,,,11.0909090909091,1678362001,,,,,,,
2023-03-09 12:00:01+00:00,#0000057,03/09/2023,12:03:10,10.45,3.61,-3.55,11.57,53,-0.956789,1.3e-005,-0.765708,6.7e-005,-14.76,-1.73,5730,1914,425.742,124.072,11.163,28.332,29.081,35.488,6.406,729.3,727,507.4,11.2046,3.75723,0.15,33.3498,9,Mar,2023,12:02:59,7.72251829993291,,,10.7818181818182,1678363201,,,,,,,
2023-03-09 12:20:02+00:00,#0000058,03/09/2023,12:23:11,10.49,3.61,-3.55,11.69,53,-0.95662,1.4e-005,-0.765799,3.6e-005,-16.78,-1.763,5730,1914,426.873,124.447,11.179,28.298,29.047,35.448,6.4,727.9,726.9,506.9,11.2214,3.75845,0.145,33.3467,9,Mar,2023,12:22:59,7.7237433781038,,,10.9636363636364,1678364402,,,,,,,
2023-03-09 12:40:01+00:00,#0000059,03/09/2023,12:43:10,10.48,3.61,-3.55,11.82,53,-0.956475,7e-006,-0.766038,5.7e-005,-13.85,-1.762,5730,1914,428.341,124.838,11.167,28.267,29.016,35.415,6.398,726.9,726.8,507.3,11.2064,3.75765,0.141,33.3523,9,Mar,2023,12:42:59,7.72452286903002,,,10.9818181818182,1678365601,,,,,,,
2023-03-09 13:00:02+00:00,#0000060,03/09/2023,13:03:10,10.49,3.61,-3.55,11.57,53,-0.956367,1.7e-005,-0.766218,4e-005,-22.38,-1.76,5730,1914,428.716,124.941,11.164,28.259,29.008,35.407,6.399,726.4,726.9,507.4,11.2061,3.75797,0.139,33.3557,9,Mar,2023,13:02:59,7.73007281754448,,,10.7818181818182,1678366802,,,,,,,
2023-03-09 13:20:01+00:00,#0000061,03/09/2023,13:23:10,10.49,3.61,-3.55,11.95,53,-0.956202,1.1e-005,-0.766279,4.8e-005,-18.93,-1.749,5730,1914,428.53,124.948,11.185,28.255,29.004,35.399,6.395,726.4,726.8,506.7,11.2236,3.75969,0.137,33.3569,9,Mar,2023,13:22:59,7.72754850013173,,,10.8181818181818,1678368001,,,,,,,
2023-03-09 13:40:02+00:00,#0000062,03/09/2023,13:43:10,10.49,3.61,-3.55,11.82,53,-0.956127,1.1e-005,-0.766587,5.5e-005,-12.48,-1.739,5730,1914,428.688,124.877,11.145,28.268,29.017,35.409,6.393,726.8,726.7,508,11.1812,3.75593,0.135,33.3581,9,Mar,2023,13:42:59,7.73076058577942,,,10.7818181818182,1678369202,,,,,,,
2023-03-09 14:00:01+00:00,#0000063,03/09/2023,14:03:10,10.5,3.61,-3.55,11.82,53,-0.955972,1.4e-005,-0.766646,2.7e-005,-13.12,-1.732,5730,1914,427.681,124.51,11.119,28.302,29.051,35.444,6.393,727.9,726.9,508.8,11.1572,3.75378,0.133,33.3587,9,Mar,2023,14:02:59,7.73351044080655,,,10.9090909090909,1678370401,,,,,,,
2023-03-09 14:20:02+00:00,#0000064,03/09/2023,14:23:11,10.51,3.61,-3.55,11.95,53,-0.955789,1.5e-005,-0.766665,3e-005,-9.36,-1.718,5730,1914,427.255,124.418,11.13,28.308,29.057,35.453,6.395,728.3,727.1,508.5,11.1714,3.75523,0.132,33.3601,9,Mar,2023,14:22:59,7.73489513790217,,,11.0727272727273,1678371602,,,,,,,
2023-03-09 14:40:01+00:00,#0000065,03/09/2023,14:43:10,10.49,3.61,-3.55,11.82,53,-0.955768,1.1e-005,-0.766854,5.1e-005,-16.13,-1.725,5730,1914,426.307,124.015,11.086,28.35,29.099,35.49,6.391,729.8,727.1,509.9,11.1279,3.75128,0.131,33.3605,9,Mar,2023,14:42:59,7.73714409029419,,,11.3272727272727,1678372801,,,,,,,
2023-03-09 15:00:01+00:00,#0000066,03/09/2023,15:03:10,10.48,3.61,-3.55,11.57,53,-0.955678,9e-006,-0.766911,4.3e-005,-12.68,-1.744,5730,1914,422.947,123.036,11.085,28.433,29.182,35.573,6.391,732.8,727.2,509.9,11.1273,3.75143,0.13,33.3625,9,Mar,2023,15:02:59,7.74236641908398,,,11.3454545454545,1678374001,,,,,,,
2023-03-09 15:20:02+00:00,#0000067,03/09/2023,15:23:11,10.49,3.61,-3.55,11.82,53,-0.955647,7e-006,-0.766996,3.7e-005,-16.6,-1.734,5730,1914,420.013,122.019,11.028,28.53,29.279,35.672,6.393,736.4,727.2,511.8,11.0657,3.74641,0.128,33.3687,9,Mar,2023,15:22:59,7.73940159635397,,,11.6,1678375202,,,,,,,
2023-03-09 15:40:02+00:00,#0000068,03/09/2023,15:43:11,10.47,3.61,-3.55,11.57,53,-0.955607,7e-006,-0.767049,2.9e-005,-9.73,-1.748,5730,1914,414.008,120.227,11.011,28.689,29.438,35.825,6.387,741.7,727.3,512.3,11.0524,3.74511,0.126,33.3679,9,Mar,2023,15:42:59,7.74370068641715,,,11.6909090909091,1678376402,,,,,,,
2023-03-09 16:00:02+00:00,#0000069,03/09/2023,16:03:10,10.49,3.61,-3.55,11.69,53,-0.955524,2.2e-005,-0.767191,3.7e-005,-22.87,-1.724,5730,1914,411.838,119.582,11.005,28.747,29.496,35.882,6.386,743.8,727.5,512.5,11.0469,3.74465,0.125,33.3684,9,Mar,2023,16:02:59,7.74344682746305,,,11.7454545454545,1678377602,,,,,,,
2023-03-09 16:20:01+00:00,#0000070,03/09/2023,16:23:10,10.48,3.61,-3.55,11.57,53,-0.955515,1.2e-005,-0.767374,4.6e-005,-11.49,-1.714,5730,1914,410.721,119.215,10.99,28.782,29.531,35.915,6.384,745,727.6,513,11.0365,3.74344,0.123,33.3657,9,Mar,2023,16:22:59,7.74529760985584,,,11.8545454545455,1678378801,,,,,,,
2023-03-09 16:40:01+00:00,#0000071,03/09/2023,16:43:10,10.49,3.61,-3.55,11.57,53,-0.955481,1.5e-005,-0.767446,2.1e-005,-7.57,-1.728,5730,1914,408.538,118.462,10.946,28.856,29.605,35.992,6.386,747.9,727.8,514.3,10.9872,3.73943,0.118,33.3708,9,Mar,2023,16:42:59,7.74597263092455,,,12.2181818181818,1678380001,,,,,,,
2023-03-09 17:00:01+00:00,#0000072,03/09/2023,17:03:10,10.48,3.61,-3.55,11.82,53,-0.955456,1.5e-005,-0.767582,5.4e-005,-12.79,-1.719,5730,1914,404.36,117.137,10.905,28.983,29.732,36.117,6.385,752.2,728.1,515.7,10.9452,3.73622,0.115,33.3771,9,Mar,2023,17:02:59,7.74289994127295,,,12.3454545454545,1678381201,,,,,,,
2023-03-09 17:20:02+00:00,#0000073,03/09/2023,17:23:11,10.49,3.61,-3.55,11.69,53,-0.955469,1.2e-005,-0.767718,6.2e-005,-14.37,-1.699,5730,1914,400.884,116.151,10.912,29.073,29.822,36.207,6.386,755.6,728.3,515.4,10.9598,3.73748,0.113,33.3763,9,Mar,2023,17:22:59,7.74453328036429,,,12.3454545454545,1678382402,,,,,,,
2023-03-09 17:40:01+00:00,#0000074,03/09/2023,17:43:10,10.48,3.61,-3.55,10.79,53,-0.955471,1.9e-005,-0.767935,3.1e-005,-15.46,-1.683,5730,1914,400.69,116.031,10.889,29.088,29.837,36.22,6.383,755.9,728.3,516.2,10.9341,3.73552,0.115,33.3803,9,Mar,2023,17:42:58,7.75753964352729,,,12.6727272727273,1678383601,,,,,,,
2023-03-09 18:00:02+00:00,#0000075,03/09/2023,18:03:10,10.48,3.61,-3.55,11.44,53,-0.955388,1.5e-005,-0.767986,5.6e-005,-19.29,-1.704,5730,1914,400.685,115.95,10.859,29.1,29.849,36.228,6.379,756.4,728.4,517.1,10.9014,3.73293,0.108,33.3842,9,Mar,2023,18:02:59,7.74968690643889,,,12.7818181818182,1678384802,,,,,,,
2023-03-09 18:20:01+00:00,#0000076,03/09/2023,18:23:10,10.5,3.61,-3.55,11.69,53,-0.95533,1.2e-005,-0.768052,1.6e-005,-5.68,-1.718,5730,1914,397.716,115.048,10.843,29.186,29.935,36.316,6.381,759.4,728.5,517.6,10.8864,3.73167,0.107,33.3854,9,Mar,2023,18:22:59,7.74712318942583,,,12.8363636363636,1678386001,,,,,,,
2023-03-09 18:40:01+00:00,#0000077,03/09/2023,18:43:10,10.47,3.61,-3.55,11.05,53,-0.955288,1.6e-005,-0.767876,5.9e-005,-10.27,-1.716,5730,1914,391.613,113.141,10.789,29.376,30.125,36.502,6.378,766.3,728.6,519.3,10.8279,3.72736,0.105,33.3958,9,Mar,2023,18:42:58,7.75725564226713,,,12.8181818181818,1678387201,,,,,,,
2023-03-09 19:00:02+00:00,#0000078,03/09/2023,19:03:10,10.48,3.61,-3.55,11.44,53,-0.955333,1.1e-005,-0.768037,6.1e-005,-17.25,-1.695,5730,1914,380.445,109.922,10.792,29.689,30.438,36.814,6.376,777.4,729,519.2,10.8336,3.72763,0.106,33.3933,9,Mar,2023,19:02:59,7.7507915259439,,,12.7818181818182,1678388402,,,,,,,
2023-03-09 19:20:01+00:00,#0000079,03/09/2023,19:23:10,10.49,3.61,-3.55,11.57,53,-0.95535,1.8e-005,-0.768144,9.9e-005,-8.45,-1.686,5730,1914,379.183,109.512,10.775,29.733,30.482,36.861,6.379,779.1,729.1,519.8,10.8193,3.72663,0.106,33.3964,9,Mar,2023,19:22:59,7.74865875554007,,,12.6,1678389601,,,,,,,
2023-03-09 19:40:01+00:00,#0000080,03/09/2023,19:43:10,10.47,3.61,-3.55,11.05,53,-0.955402,1.7e-005,-0.768333,3.3e-005,-11.56,-1.688,5730,1914,375.439,108.431,10.775,29.841,30.59,36.967,6.377,783,729.3,519.8,10.8239,3.72695,0.099,33.3953,9,Mar,2023,19:42:59,7.75522684574366,,,12.8363636363636,1678390801,,,,,,,
2023-03-09 20:00:02+00:00,#0000081,03/09/2023,20:03:10,10.47,3.61,-3.55,11.31,53,-0.955368,1.3e-005,-0.768635,5.1e-005,-13.04,-1.726,5730,1914,376.895,108.931,10.806,29.786,30.535,36.911,6.376,781,729.3,518.8,10.8607,3.72984,0.101,33.3906,9,Mar,2023,20:02:59,7.75200917366845,,,12.7818181818182,1678392002,,,,,,,
2023-03-09 20:20:01+00:00,#0000082,03/09/2023,20:23:10,10.46,3.61,-3.55,11.31,53,-0.955366,1.3e-005,-0.768849,4.6e-005,7.36,-1.702,5730,1914,381.104,110.171,10.815,29.661,30.41,36.783,6.374,776.4,729.3,518.5,10.8698,3.73079,0.109,33.3919,9,Mar,2023,20:22:59,7.75206327678362,,,12.5818181818182,1678393201,,,,,,,
2023-03-09 20:40:01+00:00,#0000083,03/09/2023,20:43:10,10.48,3.61,-3.55,11.57,53,-0.955179,1.6e-005,-0.768967,4.1e-005,-11.88,-1.739,5730,1914,382.05,110.508,10.84,29.623,30.372,36.743,6.371,775,729.1,517.7,10.8933,3.7326,0.097,33.3883,9,Mar,2023,20:42:59,7.75156943204779,,,12.6545454545455,1678394401,,,,,,,
2023-03-09 21:00:02+00:00,#0000084,03/09/2023,21:03:10,10.49,3.61,-3.55,11.57,53,-0.955067,1.5e-005,-0.769129,4e-005,-14.5,-1.723,5730,1914,385.056,111.42,10.856,29.531,30.28,36.65,6.371,771.8,729,517.2,10.9112,3.73404,0.097,33.3864,9,Mar,2023,21:02:59,7.7535246887087,,,12.4363636363636,1678395602,,,,,,,
2023-03-09 21:20:01+00:00,#0000085,03/09/2023,21:23:10,10.47,3.61,-3.55,11.31,53,-0.955024,1.6e-005,-0.769035,6.3e-005,-16.57,-1.745,5730,1914,381.56,110.343,10.831,29.641,30.39,36.759,6.369,775.4,728.7,518,10.8755,3.73153,0.091,33.394,9,Mar,2023,21:22:59,7.75815271787922,,,12.3090909090909,1678396801,,,,,,,
2023-03-09 21:40:01+00:00,#0000086,03/09/2023,21:43:10,10.48,3.61,-3.55,11.44,53,-0.955066,1.5e-005,-0.769001,2.4e-005,-10.81,-1.709,5730,1914,371.434,107.337,10.8,29.948,30.697,37.062,6.365,786.5,728.8,519,10.8431,3.72881,0.092,33.3964,9,Mar,2023,21:42:59,7.75556435191341,,,12.3454545454545,1678398001,,,,,,,
2023-03-09 22:00:02+00:00,#0000087,03/09/2023,22:03:10,10.48,3.61,-3.55,11.57,53,-0.955147,1.5e-005,-0.769206,3.1e-005,-2.16,-1.71,5730,1914,364.794,105.441,10.809,30.143,30.892,37.258,6.366,793.4,729,518.7,10.8589,3.73011,0.086,33.395,9,Mar,2023,22:02:59,7.75223198123329,,,11.9636363636364,1678399202,,,,,,,
2023-03-09 22:20:01+00:00,#0000088,03/09/2023,22:23:10,10.47,3.61,-3.55,11.31,53,-0.955177,1.1e-005,-0.769411,3e-005,-15.53,-1.677,5730,1914,366.569,105.962,10.812,30.088,30.837,37.203,6.366,791.5,728.9,518.6,10.8625,3.73037,0.078,33.3943,9,Mar,2023,22:22:59,7.75544629326649,,,12,1678400401,,,,,,,
2023-03-09 22:40:02+00:00,#0000089,03/09/2023,22:43:10,10.48,3.61,-3.55,11.31,53,-0.955149,1.5e-005,-0.769645,5.8e-005,-11.74,-1.708,5730,1914,367.577,106.279,10.823,30.053,30.802,37.168,6.366,790.3,729,518.3,10.8752,3.73141,0.073,33.393,9,Mar,2023,22:42:59,7.75592370695086,,,11.6909090909091,1678401602,,,,,,,
2023-03-09 23:00:01+00:00,#0000090,03/09/2023,23:03:10,10.5,3.61,-3.55,11.69,53,-0.955047,1.9e-005,-0.769862,1.6e-005,-14.91,-1.736,5730,1914,369.805,107.007,10.857,29.972,30.721,37.085,6.364,787.3,728.9,517.2,10.9085,3.73392,0.065,33.3877,9,Mar,2023,23:02:59,7.75216345154134,,,11.5454545454545,1678402801,,,,,,,
2023-03-09 23:20:01+00:00,#0000091,03/09/2023,23:23:10,10.5,3.61,-3.55,11.57,53,-0.954941,8e-006,-0.770143,3.1e-005,-12.04,-1.726,5730,1914,376.97,109.162,10.889,29.749,30.498,36.856,6.359,778.9,728.8,516.2,10.9432,3.73622,0.061,33.379,9,Mar,2023,23:22:59,7.75564884714685,,,11.4363636363636,1678404001,,,,,,,
2023-03-09 23:40:02+00:00,#0000092,03/09/2023,23:43:10,10.48,3.61,-3.55,11.44,53,-0.954641,1.5e-005,-0.770473,3.6e-005,-20.2,-1.721,5730,1914,390.364,113.187,10.945,29.346,30.095,36.456,6.361,764.7,728.6,514.4,11.002,3.74079,0.054,33.3708,9,Mar,2023,23:42:59,7.76272324609468,,,11.4363636363636,1678405202,,,,,,,
2023-03-10 00:00:01+00:00,#0000093,03/10/2023,00:03:10,10.49,3.61,-3.55,11.57,53,-0.954285,1.7e-005,-0.77067,2.8e-005,-9.54,-1.747,5730,1914,406.306,117.966,11.002,28.892,29.641,36.002,6.361,748.4,728.2,512.6,11.0552,3.74503,0.048,33.3646,10,Mar,2023,00:02:59,7.76705408792705,,,11.3090909090909,1678406401,,,,,,,
2023-03-10 00:20:01+00:00,#0000094,03/10/2023,00:23:10,10.48,3.61,-3.55,11.57,53,-0.954058,1.8e-005,-0.770933,4e-005,-13.98,-1.762,5730,1914,415.828,120.906,11.065,28.62,29.369,35.734,6.365,738.8,728,510.6,11.1307,3.75059,0.047,33.3512,10,Mar,2023,00:22:59,7.77087990146932,,,11.1818181818182,1678407601,,,,,,,
2023-03-10 00:40:01+00:00,#0000095,03/10/2023,00:43:10,10.48,3.61,-3.55,11.57,53,-0.953762,1.5e-005,-0.771059,2.5e-005,-13,-1.732,5730,1914,424.084,123.572,11.157,28.376,29.125,35.488,6.363,729.7,727.5,507.6,11.2289,3.75942,0.042,33.3495,10,Mar,2023,00:42:59,7.77609500439465,,,11.0909090909091,1678408801,,,,,,,
2023-03-10 01:00:02+00:00,#0000096,03/10/2023,01:03:10,10.49,3.61,-3.55,11.82,53,-0.95354,2e-005,-0.771527,6.1e-005,-15.48,-1.732,5730,1914,432.094,126.377,11.319,28.115,28.864,35.231,6.367,720.3,726.9,502.5,11.4088,3.77481,0.032,33.3384,10,Mar,2023,01:02:59,7.77623047669873,,,11.0909090909091,1678410002,,,,,,,
2023-03-10 01:20:02+00:00,#0000097,03/10/2023,01:23:10,10.48,3.61,-3.55,11.82,53,-0.953378,1.1e-005,-0.771955,2.2e-005,-11.56,-1.8,5730,1914,443.016,129.897,11.428,27.814,28.563,34.94,6.377,709.2,725.8,499,11.5244,3.78589,0.031,33.343,10,Mar,2023,01:22:59,7.77916149734557,,,11.0909090909091,1678411202,,,,,,,
2023-03-10 01:40:01+00:00,#0000098,03/10/2023,01:43:10,10.49,3.61,-3.55,12.08,53,-0.953217,1.8e-005,-0.772063,3.4e-005,-19.35,-1.764,5730,1914,448.202,131.451,11.439,27.69,28.439,34.824,6.385,704.3,724.7,498.6,11.5313,3.78639,0.028,33.3418,10,Mar,2023,01:42:59,7.77820701022952,,,10.9272727272727,1678412401,,,,,,,
2023-03-10 02:00:02+00:00,#0000099,03/10/2023,02:03:10,10.5,3.61,-3.55,12.34,53,-0.953132,1e-005,-0.77181,2.8e-005,-16.11,-1.764,5730,1914,443.093,129.706,11.357,27.84,28.589,34.985,6.396,709.7,724,501.3,11.4172,3.77806,0.027,33.3629,10,Mar,2023,02:02:59,7.77622565765381,,,10.9818181818182,1678413602,,,,,,,
2023-03-10 02:20:02+00:00,#0000100,03/10/2023,02:23:10,10.49,3.61,-3.55,11.05,53,-0.953156,4e-006,-0.771682,6.5e-005,-16.59,-1.736,5730,1914,430.941,125.943,11.286,28.156,28.905,35.3,6.395,721,724.1,503.5,11.3463,3.77111,0.021,33.3585,10,Mar,2023,02:22:59,7.7945269853122,,,11.0909090909091,1678414802,,,,,,,
2023-03-10 02:40:02+00:00,#0000101,03/10/2023,02:43:10,10.48,3.61,-3.55,12.08,53,-0.953208,1.2e-005,-0.771644,1.9e-005,-11.56,-1.735,5730,1914,421.425,123.037,11.242,28.408,29.157,35.545,6.388,730.1,724.4,504.9,11.3067,3.76862,0.024,33.3698,10,Mar,2023,02:42:59,7.77876709203882,,,11.2,1678416002,,,,,,,